World > North America > United States > Alabama > Ashville   City of Ashville, AL

Ashville, AL Hourly Weather Updates

Feedback E-mail the Weather

Quick Clicks

Ashville, AL Weather Maps

°F °C°F °C
Ashville Weather Map
UTC Time: 6/24/2024, 06:10
Your Time:

Ashville, AL Regional Weather

Expires:202406240600;;559994
ASUS44 KBMX 240510
RWRAL 
             
ALABAMA REGIONAL WEATHER ROUNDUP
NATIONAL WEATHER SERVICE BIRMINGHAM AL
1200 AM CDT MON JUN 24 2024

NOTE: "FAIR" INDICATES FEW OR NO CLOUDS BELOW 12,000 FEET
WITH NO SIGNIFICANT WEATHER AND/OR OBSTRUCTIONS TO VISIBILITY.

THE REMARK "TC" DENOTES TEMPERATURE IN DEGREES CELSIUS.


ALZ015-024>026-033>036-041>044-240600-
CENTRAL ALABAMA
  
CITY           SKY/WX    TMP DP  RH WIND       PRES   REMARKS
BIRMINGHAM     CLOUDY    87  66  49 SW6       29.94R TC  31           
MONTGOMERY     CLEAR     77  72  84 SW7       29.91S TC  25           
SHELBY CO ARPT MOCLDY    79  70  74 CALM      29.92S TC  26           
MAXWELL AFB    CLEAR     78  70  76 CALM      29.89R TC  26           
GREENVILLE     CLEAR     78  71  79 W3        29.93R TC  26           
SELMA          MOCLDY    77  75  94 S3        29.91R TC  25           
PRATTVILLE     CLEAR     75  69  81 CALM      29.91R TC  24           
BESSEMER       MOCLDY    81  68  64 W3        29.94R TC  27           
TALLADEGA      CLOUDY    79  70  73 SE2       29.90S TC  26           
PELL CITY      NOT AVBL                                               
SYLACAUGA      CLOUDY    75  67  77 CALM      29.93R TC  24           
JASPER         CLOUDY    79  73  83 CALM      29.92S TC  26           
$$
 

SKY/WX - Weather  TMP - Temperature  DP - Dew Point  RH - Humidity
WIND - Wind Direction/Speed PRES - Barometric Pressure VSB - Visibility
WCI - Wind Chill Index E13G22 Wind - East Wind 13 mph/Gusts of 22 mph

Trending Headlines

Trending Entertainment Headlines

Ashville Radar Loop

Use the map search tool if you want to place a location marker on the radar map...

Ashville Quick Facts

National Two Day Weather Forecast


E-mail the Ashville Weather Forecast

Voice your opinion or tell us about page issues...